Time,TemperatureF,DewpointF,PressureIn,WindDirection,WindDirectionDegrees,WindSpeedMPH,WindSpeedGustMPH,Humidity,HourlyPrecipIn,Conditions,Clouds,dailyrainin,SoftwareType,DateUTC
2013-08-21 00:08:00,69.0,65.0,30.13,West,267,3.0,6.0,88,0.00,,,0.00,weatherlink.com 1.10,2013-08-21 04:08:00,
2013-08-21 00:23:00,69.1,66.0,30.13,WNW,282,2.0,8.0,88,0.00,,,0.00,weatherlink.com 1.10,2013-08-21 04:23:00,
2013-08-21 00:38:00,69.0,66.0,30.13,West,268,4.0,6.0,89,0.00,,,0.00,weatherlink.com 1.10,2013-08-21 04:38:00,
2013-08-21 00:53:00,69.0,66.0,30.13,WNW,285,2.0,7.0,90,0.00,,,0.00,weatherlink.com 1.10,2013-08-21 04:53:00,
2013-08-21 01:08:00,69.0,66.0,30.13,West,281,6.0,7.0,90,0.00,,,0.00,weatherlink.com 1.10,2013-08-21 05:08:00,
2013-08-21 01:23:00,69.0,66.0,30.12,West,274,3.0,6.0,90,0.00,,,0.00,weatherlink.com 1.10,2013-08-21 05:23:00,
2013-08-21 01:38:00,68.8,66.0,30.13,West,259,3.0,6.0,90,0.00,,,0.00,weatherlink.com 1.10,2013-08-21 05:38:00,
2013-08-21 01:53:00,68.5,66.0,30.13,NW,305,2.0,4.0,91,0.00,,,0.00,weatherlink.com 1.10,2013-08-21 05:53:00,
2013-08-21 02:08:00,68.2,66.0,30.13,WNW,293,1.0,4.0,91,0.00,,,0.00,weatherlink.com 1.10,2013-08-21 06:08:00,
2013-08-21 02:23:00,67.9,65.0,30.13,West,279,4.0,5.0,91,0.00,,,0.00,weatherlink.com 1.10,2013-08-21 06:23:00,
2013-08-21 02:38:00,67.8,65.0,30.13,NW,314,1.0,5.0,91,0.00,,,0.00,weatherlink.com 1.10,2013-08-21 06:38:00,
2013-08-21 02:53:00,67.6,65.0,30.13,West,275,1.0,4.0,92,0.00,,,0.00,weatherlink.com 1.10,2013-08-21 06:53:00,
2013-08-21 03:08:00,67.3,65.0,30.13,NNW,327,1.0,4.0,92,0.00,,,0.00,weatherlink.com 1.10,2013-08-21 07:08:00,
2013-08-21 03:23:00,67.0,65.0,30.13,NW,316,1.0,3.0,92,0.00,,,0.00,weatherlink.com 1.10,2013-08-21 07:23:00,
2013-08-21 03:38:00,66.8,65.0,30.13,NW,321,2.0,3.0,92,0.00,,,0.00,weatherlink.com 1.10,2013-08-21 07:38:00,
2013-08-21 03:53:00,66.3,64.0,30.13,NW,309,1.0,3.0,92,0.00,,,0.00,weatherlink.com 1.10,2013-08-21 07:53:00,
2013-08-21 04:08:00,66.0,64.0,30.13,NW,324,1.0,3.0,92,0.00,,,0.00,weatherlink.com 1.10,2013-08-21 08:08:00,
2013-08-21 04:23:00,65.7,63.0,30.13,NW,316,2.0,2.0,92,0.00,,,0.00,weatherlink.com 1.10,2013-08-21 08:23:00,
2013-08-21 04:38:00,65.3,63.0,30.14,NW,316,0.0,1.0,92,0.00,,,0.00,weatherlink.com 1.10,2013-08-21 08:38:00,
2013-08-21 04:53:00,65.2,63.0,30.14,NW,313,1.0,3.0,93,0.00,,,0.00,weatherlink.com 1.10,2013-08-21 08:53:00,
2013-08-21 05:08:00,65.0,63.0,30.14,NW,311,1.0,3.0,93,0.00,,,0.00,weatherlink.com 1.10,2013-08-21 09:08:00,
2013-08-21 05:23:00,64.7,63.0,30.14,NW,314,0.0,2.0,93,0.00,,,0.00,weatherlink.com 1.10,2013-08-21 09:23:00,
2013-08-21 05:38:00,64.3,62.0,30.14,NW,314,0.0,1.0,93,0.00,,,0.00,weatherlink.com 1.10,2013-08-21 09:38:00,
2013-08-21 05:53:00,64.1,62.0,30.15,NW,314,0.0,1.0,94,0.00,,,0.00,weatherlink.com 1.10,2013-08-21 09:53:00,
2013-08-21 06:08:00,64.1,62.0,30.15,WNW,302,0.0,1.0,94,0.00,,,0.00,weatherlink.com 1.10,2013-08-21 10:08:00,
2013-08-21 06:24:00,63.8,62.0,30.15,WNW,302,0.0,1.0,94,0.00,,,0.00,weatherlink.com 1.10,2013-08-21 10:24:00,
2013-08-21 06:39:00,64.2,63.0,30.16,WNW,302,0.0,2.0,94,0.00,,,0.00,weatherlink.com 1.10,2013-08-21 10:39:00,
2013-08-21 06:54:00,64.8,63.0,30.16,WNW,302,1.0,2.0,95,0.00,,,0.00,weatherlink.com 1.10,2013-08-21 10:54:00,
2013-08-21 07:09:00,65.8,64.0,30.16,WNW,302,0.0,2.0,95,0.00,,,0.00,weatherlink.com 1.10,2013-08-21 11:09:00,
2013-08-21 07:24:00,66.8,65.0,30.16,WNW,302,0.0,1.0,95,0.00,,,0.00,weatherlink.com 1.10,2013-08-21 11:24:00,
2013-08-21 07:39:00,68.3,66.0,30.17,WNW,290,3.0,3.0,93,0.00,,,0.00,weatherlink.com 1.10,2013-08-21 11:39:00,
2013-08-21 07:54:00,70.4,67.0,30.17,WNW,294,2.0,3.0,89,0.00,,,0.00,weatherlink.com 1.10,2013-08-21 11:54:00,
2013-08-21 08:09:00,72.6,67.0,30.17,WNW,285,1.0,5.0,81,0.00,,,0.00,weatherlink.com 1.10,2013-08-21 12:09:00,
2013-08-21 08:24:00,74.0,66.0,30.17,WSW,252,1.0,6.0,76,0.00,,,0.00,weatherlink.com 1.10,2013-08-21 12:24:00,
2013-08-21 08:39:00,75.3,67.0,30.16,NW,317,0.0,4.0,74,0.00,,,0.00,weatherlink.com 1.10,2013-08-21 12:39:00,
2013-08-21 08:54:00,76.3,67.0,30.17,WNW,297,1.0,5.0,74,0.00,,,0.00,weatherlink.com 1.10,2013-08-21 12:54:00,
2013-08-21 09:09:00,77.1,67.0,30.17,WNW,300,5.0,5.0,70,0.00,,,0.00,weatherlink.com 1.10,2013-08-21 13:09:00,
2013-08-21 09:24:00,77.8,67.0,30.17,NW,319,2.0,4.0,70,0.00,,,0.00,weatherlink.com 1.10,2013-08-21 13:24:00,
2013-08-21 09:39:00,78.1,66.0,30.17,SW,228,2.0,4.0,67,0.00,,,0.00,weatherlink.com 1.10,2013-08-21 13:39:00,
2013-08-21 09:54:00,78.2,66.0,30.17,NNW,338,2.0,6.0,66,0.00,,,0.00,weatherlink.com 1.10,2013-08-21 13:54:00,
2013-08-21 10:09:00,78.6,65.0,30.17,West,262,3.0,7.0,64,0.00,,,0.00,weatherlink.com 1.10,2013-08-21 14:09:00,
2013-08-21 10:24:00,79.6,68.0,30.17,NNW,345,4.0,4.0,67,0.00,,,0.00,weatherlink.com 1.10,2013-08-21 14:24:00,
2013-08-21 10:39:00,80.5,67.0,30.16,NW,316,3.0,4.0,64,0.00,,,0.00,weatherlink.com 1.10,2013-08-21 14:39:00,
2013-08-21 10:54:00,80.5,66.0,30.16,WNW,300,3.0,8.0,61,0.00,,,0.00,weatherlink.com 1.10,2013-08-21 14:54:00,
2013-08-21 11:09:00,80.5,66.0,30.16,NW,315,5.0,8.0,61,0.00,,,0.00,weatherlink.com 1.10,2013-08-21 15:09:00,
2013-08-21 11:24:00,81.4,68.0,30.17,West,266,4.0,8.0,63,0.00,,,0.00,weatherlink.com 1.10,2013-08-21 15:24:00,
2013-08-21 11:54:00,82.0,66.0,30.16,WNW,285,6.0,8.0,58,0.00,,,0.00,weatherlink.com 1.10,2013-08-21 15:54:00,
2013-08-21 12:09:00,82.3,65.0,30.16,West,279,3.0,9.0,56,0.00,,,0.00,weatherlink.com 1.10,2013-08-21 16:09:00,
2013-08-21 12:25:00,82.9,64.0,30.16,West,270,4.0,9.0,54,0.00,,,0.00,weatherlink.com 1.10,2013-08-21 16:25:00,
2013-08-21 12:40:00,82.6,65.0,30.15,WNW,295,7.0,9.0,55,0.00,,,0.00,weatherlink.com 1.10,2013-08-21 16:40:00,
2013-08-21 12:55:00,83.3,66.0,30.15,West,278,4.0,8.0,57,0.00,,,0.00,weatherlink.com 1.10,2013-08-21 16:55:00,
2013-08-21 13:10:00,83.7,66.0,30.15,West,275,3.0,8.0,56,0.00,,,0.00,weatherlink.com 1.10,2013-08-21 17:10:00,
2013-08-21 13:25:00,83.2,66.0,30.14,West,271,3.0,11.0,56,0.00,,,0.00,weatherlink.com 1.10,2013-08-21 17:25:00,
2013-08-21 13:40:00,83.4,67.0,30.14,WNW,296,2.0,12.0,59,0.00,,,0.00,weatherlink.com 1.10,2013-08-21 17:40:00,
2013-08-21 13:55:00,82.7,66.0,30.14,West,281,7.0,10.0,58,0.00,,,0.00,weatherlink.com 1.10,2013-08-21 17:55:00,
2013-08-21 14:10:00,82.9,68.0,30.14,South,184,2.0,8.0,62,0.00,,,0.00,weatherlink.com 1.10,2013-08-21 18:10:00,
2013-08-21 14:25:00,83.1,67.0,30.13,WSW,246,3.0,8.0,59,0.00,,,0.00,weatherlink.com 1.10,2013-08-21 18:25:00,
2013-08-21 14:40:00,83.5,69.0,30.12,West,259,0.0,9.0,62,0.00,,,0.00,weatherlink.com 1.10,2013-08-21 18:40:00,
2013-08-21 14:55:00,83.8,70.0,30.12,SW,220,4.0,7.0,64,0.00,,,0.00,weatherlink.com 1.10,2013-08-21 18:55:00,
2013-08-21 15:10:00,84.0,71.0,30.12,West,273,1.0,6.0,64,0.00,,,0.00,weatherlink.com 1.10,2013-08-21 19:10:00,
2013-08-21 15:25:00,84.2,70.0,30.12,SW,231,4.0,7.0,62,0.00,,,0.00,weatherlink.com 1.10,2013-08-21 19:25:00,
2013-08-21 15:40:00,83.5,69.0,30.12,SSW,213,0.0,7.0,62,0.00,,,0.00,weatherlink.com 1.10,2013-08-21 19:40:00,
2013-08-21 15:55:00,83.1,70.0,30.12,West,262,1.0,4.0,65,0.00,,,0.00,weatherlink.com 1.10,2013-08-21 19:55:00,
2013-08-21 16:10:00,82.5,70.0,30.11,SW,227,1.0,8.0,67,0.00,,,0.00,weatherlink.com 1.10,2013-08-21 20:10:00,
2013-08-21 16:25:00,82.2,70.0,30.11,WSW,248,5.0,6.0,67,0.00,,,0.00,weatherlink.com 1.10,2013-08-21 20:25:00,
2013-08-21 16:40:00,81.7,69.0,30.11,WNW,284,1.0,10.0,66,0.00,,,0.00,weatherlink.com 1.10,2013-08-21 20:40:00,
2013-08-21 16:55:00,81.6,69.0,30.11,WNW,290,2.0,4.0,65,0.00,,,0.00,weatherlink.com 1.10,2013-08-21 20:55:00,
2013-08-21 17:10:00,81.6,69.0,30.10,WNW,287,3.0,5.0,65,0.00,,,0.00,weatherlink.com 1.10,2013-08-21 21:10:00,
2013-08-21 17:25:00,81.7,70.0,30.10,SSE,166,1.0,4.0,68,0.00,,,0.00,weatherlink.com 1.10,2013-08-21 21:25:00,
2013-08-21 17:40:00,81.3,70.0,30.09,SSE,158,0.0,3.0,68,0.00,,,0.00,weatherlink.com 1.10,2013-08-21 21:40:00,
2013-08-21 17:55:00,80.6,70.0,30.09,West,266,0.0,4.0,70,0.00,,,0.00,weatherlink.com 1.10,2013-08-21 21:55:00,
2013-08-21 18:10:00,79.7,69.0,30.09,SSE,160,2.0,5.0,70,0.00,,,0.00,weatherlink.com 1.10,2013-08-21 22:10:00,
2013-08-21 18:25:00,78.8,69.0,30.09,WNW,292,0.0,5.0,71,0.00,,,0.00,weatherlink.com 1.10,2013-08-21 22:25:00,
2013-08-21 18:40:00,78.2,68.0,30.09,SSE,158,0.0,2.0,72,0.00,,,0.00,weatherlink.com 1.10,2013-08-21 22:40:00,
2013-08-21 18:55:00,76.6,70.0,30.09,SSE,157,0.0,2.0,79,0.00,,,0.00,weatherlink.com 1.10,2013-08-21 22:55:00,
2013-08-21 19:10:00,74.7,69.0,30.09,SSE,157,0.0,1.0,83,0.00,,,0.00,weatherlink.com 1.10,2013-08-21 23:10:00,
2013-08-21 19:25:00,72.8,68.0,30.09,SSE,157,0.0,2.0,85,0.00,,,0.00,weatherlink.com 1.10,2013-08-21 23:25:00,
2013-08-21 19:40:00,71.2,67.0,30.09,SSE,151,1.0,1.0,87,0.00,,,0.00,weatherlink.com 1.10,2013-08-21 23:40:00,
2013-08-21 19:55:00,70.3,66.0,30.09,South,176,1.0,4.0,87,0.00,,,0.00,weatherlink.com 1.10,2013-08-21 23:55:00,
2013-08-21 20:10:00,70.1,66.0,30.09,SSE,155,0.0,1.0,87,0.00,,,0.00,weatherlink.com 1.10,2013-08-22 00:10:00,
2013-08-21 20:25:00,69.2,66.0,30.09,SSE,155,0.0,1.0,88,0.00,,,0.00,weatherlink.com 1.10,2013-08-22 00:25:00,
2013-08-21 20:40:00,68.2,65.0,30.10,SSE,155,0.0,1.0,89,0.00,,,0.00,weatherlink.com 1.10,2013-08-22 00:40:00,
2013-08-21 21:10:00,66.8,64.0,30.10,ESE,108,1.0,3.0,91,0.00,,,0.00,weatherlink.com 1.10,2013-08-22 01:10:00,
2013-08-21 21:25:00,68.6,65.0,30.10,West,271,1.0,9.0,87,0.00,,,0.00,weatherlink.com 1.10,2013-08-22 01:25:00,
2013-08-21 21:40:00,70.8,65.0,30.10,West,264,2.0,8.0,82,0.00,,,0.00,weatherlink.com 1.10,2013-08-22 01:40:00,
2013-08-21 21:55:00,71.7,65.0,30.10,West,261,6.0,10.0,79,0.00,,,0.00,weatherlink.com 1.10,2013-08-22 01:55:00,
2013-08-21 22:10:00,72.3,65.0,30.10,West,275,5.0,11.0,79,0.00,,,0.00,weatherlink.com 1.10,2013-08-22 02:10:00,
2013-08-21 22:25:00,72.4,66.0,30.09,West,269,3.0,10.0,81,0.00,,,0.00,weatherlink.com 1.10,2013-08-22 02:25:00,
2013-08-21 22:40:00,72.4,67.0,30.09,South,189,2.0,11.0,83,0.00,,,0.00,weatherlink.com 1.10,2013-08-22 02:40:00,
2013-08-21 22:55:00,72.4,67.0,30.09,West,275,2.0,9.0,83,0.00,,,0.00,weatherlink.com 1.10,2013-08-22 02:55:00,
2013-08-21 23:10:00,72.3,67.0,30.09,West,278,2.0,10.0,84,0.00,,,0.00,weatherlink.com 1.10,2013-08-22 03:10:00,
2013-08-21 23:25:00,72.4,68.0,30.09,WNW,285,1.0,9.0,85,0.00,,,0.00,weatherlink.com 1.10,2013-08-22 03:25:00,
2013-08-21 23:40:00,72.0,68.0,30.09,NW,314,3.0,12.0,86,0.00,,,0.00,weatherlink.com 1.10,2013-08-22 03:40:00,
2013-08-21 23:55:00,71.8,68.0,30.08,WNW,290,2.0,11.0,86,0.00,,,0.00,weatherlink.com 1.10,2013-08-22 03:55:00,